Torna al catalogo

STARLINK-31906

AttivoComunicazioniVLEO
NORAD 59842·PAYLOAD·🇺🇸 United States

Lanciato May 23, 2024 da Cape Canaveral Space Force Station

Loading…

Prossimi Passaggi (prossime 24 ore)

TLE

AggiornatoSource: CelesTrak SupGP

Epoca: Sep 14, 2026, 21:32 UTC

1 59842C 24097H   26257.89770833  .00009000  00000+0  32605-3 0  2571
2 59842  43.0001 285.9342 0001479 266.2423  46.2975 15.27567309    16

Traccia STARLINK-31906 in tempo reale con AllMySat

Download on the App Store